Regional Weather Roundup
Issued by NWS

Home | Current Version | Previous Version | Graphics & Text | Print | Product List | Glossary On
Versions: 1 2 3 4 5 6 7 8 9 10 11 12 13 14 15 16 17 18 19 20 21 22 23 24 25 26 27 28 29 30 31 32 33 34 35 36 37 38 39 40 41 42 43 44 45 46 47 48 49 50
000
ASUS43 KDTX 270601
RWRMI
MICHIGAN HOURLY REGIONAL WEATHER ROUNDUP
NATIONAL WEATHER SERVICE DETROIT/PONTIAC MI
200 AM EDT TUE JUN 27 2017

NOTE: "FAIR" INDICATES FEW OR NO CLOUDS BELOW 12,000 FEET WITH NO
SIGNIFICANT WEATHER AND/OR OBSTRUCTION TO VISIBILITY.

MIZ047>049-052>055-059>063-066>070-074>076-081>083-270700-
SOUTHEAST LOWER MICHIGAN

CITY           SKY/WX    TMP DP  RH WIND       PRES   REMARKS
ADRIAN         CLEAR     52  44  74 W5        30.04R
6HR MIN TEMP:  52; 6HR MAX TEMP:  65;

ALMA           CLOUDY    52  49  89 W7        30.02S
ANN ARBOR      CLEAR     48  45  89 SW6       30.01S
BAD AXE        CLEAR     51  47  88 CALM      29.95S
6HR MIN TEMP:  51; 6HR MAX TEMP:  63;

CARO           CLEAR     52  48  87 W6        29.96S
DETROIT CITY   CLEAR     54  46  74 W6        29.98S
6HR MIN TEMP:  54; 6HR MAX TEMP:  67; 6HR PCP:  0.01;

DETROIT        PTCLDY    54  45  71 W12       30.00S
6HR MIN TEMP:  54; 6HR MAX TEMP:  68; 6HR PCP:  0.02;

FLINT          PTCLDY    52  46  80 W12       29.99S
6HR MIN TEMP:  52; 6HR MAX TEMP:  63;

GROSSE ILE     CLEAR     54  46  75 W8        29.99S
6HR MIN TEMP:  54; 6HR MAX TEMP:  68; 6HR PCP:  0.05;

HILLSDALE      CLEAR     48  43  81 W7        30.03S
HOWELL         PTCLDY    51  44  77 W8        30.00S
6HR MIN TEMP:  51; 6HR MAX TEMP:  61; 6HR PCP:  0.01;


CITY           SKY/WX    TMP DP  RH WIND       PRES   REMARKS
JACKSON        PTCLDY    51  45  79 W7        30.03R
6HR MIN TEMP:  50; 6HR MAX TEMP:  63;

LAMBERTVILLE   CLEAR     55  44  68 NW3       30.02S
6HR MIN TEMP:  55; 6HR MAX TEMP:  63;

LANSING        CLOUDY    54  45  71 W7        30.02F
6HR MIN TEMP:  52; 6HR MAX TEMP:  61;

LAPEER         CLOUDY    55  46  73 W8        29.97S
6HR MIN TEMP:  54; 6HR MAX TEMP:  65;

MASON          MOCLDY    51  46  83 W7        30.02S
MONROE         CLEAR     54  46  73 NW9       30.00S
6HR MIN TEMP:  54; 6HR MAX TEMP:  69;

MT. CLEMENS    PTCLDY    54  47  77 W8        29.95F
6HR MIN TEMP:  54; 6HR MAX TEMP:  67; 6HR PCP:  0.03;

PONTIAC        CLOUDY    53  47  79 W15       29.97S
6HR MIN TEMP:  53; 6HR MAX TEMP:  65; 6HR PCP: TRACE;

PORT HOPE        N/A     57  50  77 NW13G21   29.93S
6HR MIN TEMP:  55; 6HR MAX TEMP:  64;

PORT HURON     PTCLDY    50  46  87 CALM      29.96S
TRI CITIES     CLOUDY    54  47  77 NW12      29.99S
6HR MIN TEMP:  53; 6HR MAX TEMP:  62;

MIDLAND        CLOUDY    53  46  76 NW3       29.99S
6HR MIN TEMP:  53; 6HR MAX TEMP:  63;

TROY           MOCLDY    55  44  66 W7        30.00S
SAGINAW HB     CLOUDY    55  45  67 W9        29.97F
$$
MIZ043>046-050>051-056>058-064>065-071>073-077>080-270700-
SOUTHWEST LOWER MICHIGAN

CITY           SKY/WX    TMP DP  RH WIND       PRES   REMARKS
BATTLE CREEK   MOCLDY    53  48  83 W8        30.04F
6HR MIN TEMP:  50; 6HR MAX TEMP:  61;

BENTON HARBOR  PTCLDY    59  49  69 NW7       30.07R
6HR MIN TEMP:  59; 6HR MAX TEMP:  62;

BIG RAPIDS     CLOUDY    50  47  90 W7        30.03R
6HR MIN TEMP:  50; 6HR MAX TEMP:  57;

COLDWATER      CLEAR     50  45  85 W3        30.04F
6HR MIN TEMP:  50; 6HR MAX TEMP:  65;

FREMONT        FAIR      48  48 100 CALM      30.05R
6HR MIN TEMP:  48; 6HR MAX TEMP:  57;

HOLLAND        PTCLDY    58  49  72 N6        30.06R
6HR MIN TEMP:  58; 6HR MAX TEMP:  60;

GRAND RAPIDS   PTCLDY    54  50  86 NW10      30.04R
6HR MIN TEMP:  52; 6HR MAX TEMP:  59;

IONIA          CLOUDY    53  47  82 W8        30.02S
6HR MIN TEMP:  52; 6HR MAX TEMP:  59;

KALAMAZOO      PTCLDY    52  45  77 W5        30.05S
6HR MIN TEMP:  51; 6HR MAX TEMP:  61;

LUDINGTON      CLEAR     47  47 100 CALM      30.03F FOG
6HR MIN TEMP:  46; 6HR MAX TEMP:  57;

MARSHALL       PTCLDY    49  47  92 W6        30.03F
6HR MIN TEMP:  48; 6HR MAX TEMP:  61;

MOUNT PLEASANT CLOUDY    53  50  91 W3        30.00S
6HR MIN TEMP:  52; 6HR MAX TEMP:  61; 6HR PCP:  0.02;

MUSKEGON       CLEAR     54  50  86 CALM      30.06R
6HR MIN TEMP:  54; 6HR MAX TEMP:  61;

SOUTH HAVEN    MOCLDY    59  52  77 NW9       30.06S
$$
MIZ016>042-270700-
NORTHERN LOWER MICHIGAN

CITY           SKY/WX    TMP DP  RH WIND       PRES   REMARKS
ALPENA         CLOUDY    51  50  96 W5        29.95S
6HR MIN TEMP:  50; 6HR MAX TEMP:  55; 6HR PCP:  0.20;

BEAVER ISLAND  CLEAR     45  45  97 CALM      29.99S
6HR MIN TEMP:  45; 6HR MAX TEMP:  56;

BELLAIRE       MOCLDY    50  48  95 CALM      30.00S
6HR MIN TEMP:  49; 6HR MAX TEMP:  54;

CADILLAC       CLOUDY    48  46  93 W3        30.01S
CHARLEVOIX     PTCLDY    51  49  93 W5        30.01F
FRANKFORT      CLEAR     46  45  96 CALM      30.02S FOG
GAYLORD        CLOUDY    50  47  89 W3        29.98S
6HR MIN TEMP:  50; 6HR MAX TEMP:  53; 6HR PCP:  0.11;

GRAYLING       CLOUDY    49  48  95 CALM      29.99S
HARBOR SPRINGS MOCLDY    49  49  99 NW5       29.98S
HOUGHTON LAKE  CLOUDY    50  48  93 NW8       30.00S
6HR MIN TEMP:  50; 6HR MAX TEMP:  57; 6HR PCP:  0.06;

MANISTEE       FOG       45  45 100 CALM      30.03S VSB 3/4
OSCODA         RAIN      52  48  86 NW9       29.94F
6HR MIN TEMP:  52; 6HR MAX TEMP:  63;

PELLSTON       CLEAR     46  43  89 W3        29.98S
6HR MIN TEMP:  46; 6HR MAX TEMP:  54; 6HR PCP:  0.02;

ROGERS CITY    CLOUDY    49  47  92 W6        29.96S
TRAVERSE CITY  CLEAR     49  46  90 S3        30.00R
6HR MIN TEMP:  48; 6HR MAX TEMP:  56; 6HR PCP:  0.03;

$$
MIZ007>008-015-270700-
EASTERN UPPER MICHIGAN

CITY           SKY/WX    TMP DP  RH WIND       PRES   REMARKS
KINROSS        CLEAR     43  42  97 W7        29.95F
6HR MIN TEMP:  43; 6HR MAX TEMP:  52;

MACKINAC ISLAN CLEAR     48  48 100 W9        29.96F
6HR MIN TEMP:  47; 6HR MAX TEMP:  53;

NEWBERRY       CLEAR     45  44  97 W6        29.97S
6HR MIN TEMP:  43; 6HR MAX TEMP:  55;

S. S. MARIE    CLEAR     48  45  89 W7        29.94S
6HR MIN TEMP:  47; 6HR MAX TEMP:  54;

MUNISING         N/A     45  44  97 S9        29.97F
6HR MIN TEMP:  44; 6HR MAX TEMP:  58;

$$
MIZ004>006-011>014-085-270700-
CENTRAL UPPER MICHIGAN

CITY           SKY/WX    TMP DP  RH WIND       PRES   REMARKS
MANISTIQUE     CLEAR     46  43  89 NW7       29.98S
6HR MIN TEMP:  43; 6HR MAX TEMP:  57;

ESCANABA       CLEAR     48  47  96 W5        30.00S
6HR MIN TEMP:  46; 6HR MAX TEMP:  63;

MENOMINEE      CLEAR     52  49  89 W5        30.02F
6HR MIN TEMP:  51; 6HR MAX TEMP:  60;

SAWYER-GWINN   CLEAR     45  42  88 W5        29.99S
6HR MIN TEMP:  45; 6HR MAX TEMP:  61;

$$
MIZ001>003-009>011-084-270700-
WESTERN UPPER MICHIGAN

CITY           SKY/WX    TMP DP  RH WIND       PRES   REMARKS
IRON MOUNTAIN  CLEAR     45  41  86 CALM      30.00F
6HR MIN TEMP:  44; 6HR MAX TEMP:  63;

HOUGHTON       CLEAR     50  45  83 NW9       29.98S
6HR MIN TEMP:  49; 6HR MAX TEMP:  59;

COPPER HARBOR    N/A     56  45  66 CALM      29.96S
6HR MIN TEMP:  55; 6HR MAX TEMP:  61;

IRONWOOD       CLOUDY    50  47  89 SW3       30.04
6HR MIN TEMP:  48; 6HR MAX TEMP:  61;

$$

ABBREVIATIONS USED IN REMARKS
   TC - TEMPERATURE IN CELSIUS
  WCI - WIND CHILL INDEX
   HX - HEAT INDEX
  VSB - VISIBILITY




USA.gov is the U.S. government's official web portal to all federal, state and local government web resources and services.